Weather History for Oxnard, CA

Change the Weather History Date:

Thursday, October 4, 2012

  Actual Average Record
Temperature  
Mean Temperature 64 °F -  
Max Temperature 69 °F 75 °F 99 °F (1953)
Min Temperature 60 °F 57 °F 44 °F (1950)
Degree Days  
Heating Degree Days 1    
Growing Degree Days 14 (Base 50)    
Moisture  
Dew Point 57 °F    
Average Humidity 80    
Maximum Humidity 90    
Minimum Humidity 68    
Precipitation  
Precipitation 0.00 in - - ()
Sea Level Pressure  
Sea Level Pressure 30.06 in    
Wind  
Wind Speed 6 mph (WNW)    
Max Wind Speed 15 mph    
Max Gust Speed -    
Visibility 9 miles    
Events      
Averages and records for this station are not official NWS values.
T = Trace of Precipitation, MM = Missing Value Source: NWS Daily Summary

Daily Weather History Graph

Daily Weather History Graph

Search for Another Location

Airport:

Trip Planner

Search our weather history database for the weather conditions in past years. The results will help you decide how hot, cold, wet, or windy it might be!

Date:

Astronomy

Oct. 04, 2012 Rise Set
Actual Time 6:54 AM PDT 6:36 PM PDT
Civil Twilight 6:28 AM PDT 7:01 PM PDT
Nautical Twilight 5:59 AM PDT 7:30 PM PDT
Astronomical Twilight 5:30 AM PDT 7:59 PM PDT
Moon 9:27 PM PDT (10/4) 11:03 AM PDT (10/4)
Length of Visible Light 12h 32m
Length of Day
11h 42m
Waning Gibbous, 81% of the Moon is Illuminated
Oct 4
Waning Gibbous
Oct 8
Last Quarter
Oct 15
New
Oct 21
First Quarter
Oct 29
Full

Hourly Weather History & Observations

Time (PDT) Temp. Dew Point Humidity Pressure Visibility Wind Dir Wind Speed Gust Speed Precip Events Conditions
12:51 AM 63.0 °F 57.9 °F 84% 30.03 in 10.0 mi WNW 6.9 mph - N/A   Overcast
1:51 AM 63.0 °F 57.9 °F 84% 30.04 in 8.0 mi WNW 5.8 mph - N/A   Overcast
2:51 AM 62.1 °F 57.0 °F 84% 30.03 in 9.0 mi NW 4.6 mph - N/A   Overcast
3:51 AM 62.1 °F 57.0 °F 84% 30.03 in 9.0 mi West 3.5 mph - N/A   Overcast
4:51 AM 62.1 °F 57.0 °F 84% 30.04 in 8.0 mi Calm Calm - N/A   Overcast
5:51 AM 62.1 °F 55.9 °F 80% 30.06 in 9.0 mi North 3.5 mph - N/A   Overcast
6:51 AM 62.1 °F 55.9 °F 80% 30.07 in 9.0 mi Calm Calm - N/A   Overcast
9:51 AM 64.9 °F 55.9 °F 73% 30.12 in 9.0 mi NW 3.5 mph - N/A   Mostly Cloudy
10:46 AM 66.2 °F 55.4 °F 68% 30.12 in 9.0 mi SW 4.6 mph - N/A   Partly Cloudy
10:51 AM 66.0 °F 55.9 °F 70% 30.12 in 9.0 mi WSW 6.9 mph - N/A   Scattered Clouds
11:51 AM 66.9 °F 55.9 °F 68% 30.12 in 9.0 mi West 8.1 mph - N/A   Clear
12:51 PM 66.9 °F 55.9 °F 68% 30.10 in 10.0 mi West 10.4 mph - N/A   Clear
1:51 PM 68.0 °F 57.0 °F 68% 30.08 in 10.0 mi West 13.8 mph - N/A   Clear
2:51 PM 68.0 °F 57.0 °F 68% 30.06 in 10.0 mi WNW 13.8 mph - N/A   Clear
3:51 PM 68.0 °F 57.9 °F 70% 30.05 in 9.0 mi West 15.0 mph - N/A   Clear
4:51 PM 66.9 °F 57.9 °F 73% 30.04 in 10.0 mi WNW 13.8 mph - N/A   Clear
5:51 PM 64.9 °F 57.9 °F 78% 30.04 in 10.0 mi West 13.8 mph - N/A   Clear
6:51 PM 64.0 °F 59.0 °F 84% 30.04 in 10.0 mi West 9.2 mph - N/A   Clear
8:51 PM 62.1 °F 59.0 °F 90% 30.05 in 10.0 mi Calm Calm - N/A   Clear
9:31 PM 62.6 °F 59.0 °F 88% 30.05 in 9.0 mi Calm Calm - N/A   Mostly Cloudy
9:51 PM 62.1 °F 59.0 °F 90% 30.05 in 9.0 mi NW 3.5 mph - N/A   Overcast
10:11 PM 62.6 °F 59.0 °F 88% 30.05 in 8.0 mi Calm Calm - N/A   Scattered Clouds
10:43 PM 60.8 °F 57.2 °F 88% 30.05 in 9.0 mi Calm Calm - N/A   Mostly Cloudy
10:51 PM 61.0 °F 57.9 °F 90% 30.05 in 9.0 mi Calm Calm - N/A   Mostly Cloudy
11:51 PM 62.1 °F 57.9 °F 86% 30.05 in 9.0 mi Calm Calm - N/A   Overcast